• MPC Preparation (Info)

  • MPEC 2014-V35 : 2014 KC46

    The following Minor Planet Electronic Circular may be linked-to from your own Web pages, but must not otherwise be redistributed electronically.

    A form allowing access to any MPEC is at the bottom of this page.


    Read MPEC 2014-V34 Read MPEC 2014-V36


    M.P.E.C. 2014-V35                                Issued 2014 Nov. 7, 18:44 UT
    
         The Minor Planet Electronic Circulars contain information on unusual
             minor planets and routine data on comets.  They are published
       on behalf of Commission 20 of the International Astronomical Union by the
              Minor Planet Center, Smithsonian Astrophysical Observatory,
                              Cambridge, MA 02138, U.S.A.
    
                 Prepared using the Tamkin Foundation Computer Network
    
                                  MPC@CFA.HARVARD.EDU
                URL https://www.minorplanetcenter.net/    ISSN 1523-6714
    
                                       2014 KC46
    
                               Revision to MPEC 2014-K67
    
    Additional Observations:
         K14K46C 2C2014 10 28.47039208 18 42.980+22 16 13.53         26.3 VtEV035G83
         K14K46C 2C2014 10 28.48339908 18 43.227+22 16 15.58         26.0 RtEV035G83
         K14K46C 2C2014 10 30.45324208 19 22.084+22 21 01.60         25.2 VtEV035G83
         K14K46C 2C2014 10 30.45755508 19 22.140+22 21 02.22         25.4 RtEV035G83
         K14K46C 2C2014 10 30.46970108 19 22.314+22 21 04.08         25.6 VtEV035G83
         K14K46C 2C2014 10 30.48740208 19 22.553+22 21 07.06         25.7 RtEV035G83
         K14K46C 2C2014 10 30.48950108 19 22.588+22 21 07.55         25.6 VtEV035G83
    
    Observer details:
    G83 Mt. Graham-LBT.  Observers M. Micheli, E. Dotto, E. Perozzi,
        G. B. Valsecchi, D. Perna, S. Ieva, E. Sani, R. Carini, A. Fontana.
        Measurers M. Micheli, F. Cusano.  8.4-m reflector + CCD.
    
    First and last observations above in comparison with prediction:
    Residuals in seconds of arc, reference and Delta-T
    141028 G83 55.1+ 19.0-    141030 G83 57.4+ 19.8-    MPO296108   +0.012 day
    
    Orbital elements:
    2014 KC46                                                Earth MOID = 0.0103 AU
    Epoch 2014 Dec. 9.0 TT = JDT 2457000.5                  MPC
    M  36.38047              (2000.0)            P               Q
    n   0.26358599     Peri.  278.92921     +0.89067607     +0.45107220
    a   2.4090982      Node    54.27814     -0.38476042     +0.81445849
    e   0.7077995      Incl.    4.01420     -0.24218911     +0.36495376
    P   3.74           H   22.8           G   0.15           U   5
    Residuals in seconds of arc
    140525 F51  0.0   0.0     140527 807  0.2-  0.1+    140531 474  0.2+  0.5+
    140525 F51  0.0   0.1-    140527 H36  0.1-  0.6+    140531 474  0.2+  0.3+
    140525 F51  0.0   0.2+    140527 H36  0.7-  1.0+    140531 474  0.1+  0.4+
    140526 926  0.2-  0.4+    140527 H36  0.8-  0.1-    140531 474  0.0   0.3+
    140526 926  0.2+  0.1-    140528 807  0.3-  0.2-    140601 807  0.0   0.0
    140526 926  0.1-  0.0     140528 807  0.4-  0.2-    140601 807  0.0   0.2-
    140526 568  0.0   0.3-    140528 807  0.2-  0.0     140601 807  0.0   0.1-
    140526 568  0.1-  0.1-    140528 E23  0.1-  0.2-    141028 G83  0.2+  0.3+
    140526 568  0.1-  0.2-    140528 E23  1.0+  0.5-    141028 G83  0.0   0.5+
    140526 568  0.0   0.1-    140530 J04  0.2-  0.1-    141030 G83  0.2+  0.1+
    140526 568  0.0   0.1-    140530 J04  0.2+  0.3-    141030 G83  0.1+  0.0
    140526 568  0.1-  0.1-    140530 J04  0.7+  0.1+    141030 G83  0.1+  0.1-
    140526 568  0.0   0.1-    140530 474  0.1+  0.2-    141030 G83  0.1-  0.1+
    140526 568  0.0   0.1-    140530 474  0.1+  0.2-    141030 G83  0.0   0.2+
    140527 807  0.2-  0.4-    140530 474  0.0   0.0
    140527 807  0.0   0.2-    140530 474  0.4+  0.0
    
    Ephemeris:
    2014 KC46                a,e,i = 2.41, 0.71, 4                   q = 0.7039
    Date    TT    R. A. (2000) Decl.     Delta      r     Elong.  Phase     V
    2014 10 08    08 02 15.4 +21 56 39   1.1879  1.3590    76.3    45.6    25.6
    ...
    2014 10 23    08 16 00.4 +22 05 59   1.1842  1.5209    88.1    40.8    25.7
    ...
    2014 10 31    08 19 30.7 +22 22 29   1.1722  1.6049    95.3    38.0    25.7
    ...
    2014 11 06    08 20 13.1 +22 41 17   1.1606  1.6666   101.2    35.7    25.7
    2014 11 07    08 20 10.1 +22 44 59   1.1586  1.6768   102.2    35.3    25.7
    2014 11 08    08 20 04.2 +22 48 51   1.1565  1.6870   103.3    34.9    25.7
    ...
    2014 11 14    08 18 25.7 +23 15 25   1.1440  1.7473   109.8    32.2    25.7
    ...
    2014 11 22    08 13 20.2 +23 59 29   1.1289  1.8261   119.1    28.2    25.6
    ...
    2014 12 07    07 54 56.4 +25 39 41   1.1188  1.9686   138.6    19.3    25.5
    
    A. U. Tomatic                (C) Copyright 2014 MPC           M.P.E.C. 2014-V35
    

    Read MPEC 2014-V34 Read MPEC 2014-V36


    MPEC number:

    Enter an MPEC number in one of the following forms:

    • 1997-B01 (the full form)
    • J97B01 (the packed version of the full form)
    • B01 (the abbreviated form)